Wetterdaten: Mittwoch, 18.02.2015
Datum Zeit Auen-Temp. Temp. -10 cm Luftfeuchte Luftfeuchte Luftdruck Regen Wind Richtung Richtung Taupunkt Windchill Windben
18.02.2015 00:00 -3,5 C 1,0 C 85 % 85 % 1037,2 hPa 0,0 l/m 1,0 km/h (0 Bft) N-NW 337 -5,6 C -3,9 C 0,0 km/h (0 Bft)
18.02.2015 00:05 -3,5 C 1,0 C 85 % 85 % 1037,2 hPa 0,0 l/m 1,1 km/h (1 Bft) NW 315 -5,6 C -3,9 C 2,6 km/h (1 Bft)
18.02.2015 00:10 -3,6 C 1,0 C 85 % 85 % 1037,2 hPa 0,0 l/m 2,3 km/h (1 Bft) N-NO 22 -5,7 C -4,1 C 0,0 km/h (0 Bft)
18.02.2015 00:15 -3,6 C 1,0 C 85 % 85 % 1037,4 hPa 0,0 l/m 1,6 km/h (1 Bft) W 270 -5,7 C -3,9 C 0,0 km/h (0 Bft)
18.02.2015 00:20 -3,6 C 1,0 C 85 % 85 % 1037,4 hPa 0,0 l/m 1,4 km/h (1 Bft) W 270 -5,7 C -4,0 C 4,8 km/h (1 Bft)
18.02.2015 00:25 -3,6 C 1,0 C 85 % 85 % 1037,4 hPa 0,0 l/m 1,6 km/h (1 Bft) W-SW 247 -5,7 C -4,0 C 1,6 km/h (1 Bft)
18.02.2015 00:30 -3,6 C 1,0 C 85 % 85 % 1037,4 hPa 0,0 l/m 1,1 km/h (1 Bft) NO 45 -5,7 C -4,0 C 0,0 km/h (0 Bft)
18.02.2015 00:35 -3,6 C 1,0 C 85 % 85 % 1037,5 hPa 0,0 l/m 0,3 km/h (0 Bft) W-NW 292 -5,7 C -4,0 C 0,0 km/h (0 Bft)
18.02.2015 00:40 -3,6 C 1,0 C 85 % 85 % 1037,5 hPa 0,0 l/m 0,2 km/h (0 Bft) W-NW 292 -5,7 C -4,0 C 2,1 km/h (1 Bft)
18.02.2015 00:45 -3,6 C 1,0 C 85 % 85 % 1037,5 hPa 0,0 l/m 0,5 km/h (0 Bft) O-NO 67 -5,7 C -4,0 C 0,0 km/h (0 Bft)
18.02.2015 00:50 -3,6 C 1,0 C 85 % 85 % 1037,5 hPa 0,0 l/m 0,6 km/h (0 Bft) N-NO 22 -5,7 C -4,0 C 2,4 km/h (1 Bft)
18.02.2015 00:55 -3,6 C 1,0 C 85 % 85 % 1037,5 hPa 0,0 l/m 0,5 km/h (0 Bft) O-NO 67 -5,7 C -4,0 C 0,0 km/h (0 Bft)
18.02.2015 01:00 -3,6 C 1,0 C 85 % 85 % 1037,5 hPa 0,0 l/m 0,2 km/h (0 Bft) O-SO 112 -5,7 C -4,0 C 0,0 km/h (0 Bft)
18.02.2015 01:05 -3,6 C 1,0 C 85 % 85 % 1037,5 hPa 0,0 l/m 0,0 km/h (0 Bft) N 360 -5,7 C -4,0 C 0,0 km/h (0 Bft)
18.02.2015 01:10 -3,6 C 1,0 C 85 % 85 % 1037,5 hPa 0,0 l/m 1,0 km/h (0 Bft) O-NO 67 -5,7 C -4,0 C 0,0 km/h (0 Bft)
18.02.2015 01:15 -3,6 C 1,0 C 85 % 85 % 1037,5 hPa 0,0 l/m 1,6 km/h (1 Bft) N-NW 337 -5,7 C -4,0 C 2,6 km/h (1 Bft)
18.02.2015 01:20 -3,6 C 1,0 C 86 % 86 % 1037,5 hPa 0,0 l/m 1,4 km/h (1 Bft) N-NO 22 -5,6 C -4,0 C 2,9 km/h (1 Bft)
18.02.2015 01:25 -3,6 C 1,0 C 86 % 86 % 1037,5 hPa 0,0 l/m 0,8 km/h (0 Bft) NW 315 -5,6 C -4,0 C 0,0 km/h (0 Bft)
18.02.2015 01:30 -3,6 C 1,0 C 86 % 86 % 1037,5 hPa 0,0 l/m 0,3 km/h (0 Bft) O-NO 67 -5,6 C -4,1 C 1,6 km/h (1 Bft)
18.02.2015 01:35 -3,6 C 1,0 C 86 % 86 % 1037,3 hPa 0,0 l/m 0,2 km/h (0 Bft) O-NO 67 -5,6 C -4,1 C 1,9 km/h (1 Bft)
18.02.2015 01:40 -3,6 C 1,0 C 86 % 86 % 1037,3 hPa 0,0 l/m 0,6 km/h (0 Bft) NW 315 -5,6 C -4,1 C 2,7 km/h (1 Bft)
18.02.2015 01:45 -3,6 C 1,0 C 86 % 86 % 1037,3 hPa 0,0 l/m 0,6 km/h (0 Bft) N-NO 22 -5,6 C -4,1 C 1,8 km/h (1 Bft)
18.02.2015 01:50 -3,6 C 1,0 C 86 % 86 % 1037,3 hPa 0,0 l/m 0,2 km/h (0 Bft) N 360 -5,6 C -4,1 C 0,0 km/h (0 Bft)
18.02.2015 01:55 -3,6 C 1,0 C 86 % 86 % 1037,5 hPa 0,0 l/m 0,2 km/h (0 Bft) W 270 -5,6 C -4,1 C 0,0 km/h (0 Bft)
18.02.2015 02:00 -3,6 C 1,0 C 86 % 86 % 1037,5 hPa 0,0 l/m 0,0 km/h (0 Bft) W 270 -5,6 C -4,1 C 0,0 km/h (0 Bft)
18.02.2015 02:05 -3,6 C 1,0 C 86 % 86 % 1037,5 hPa 0,0 l/m 0,0 km/h (0 Bft) N-NO 22 -5,6 C -4,1 C 0,0 km/h (0 Bft)
18.02.2015 02:10 -3,6 C 1,0 C 86 % 86 % 1037,5 hPa 0,0 l/m 0,2 km/h (0 Bft) NW 315 -5,6 C -4,1 C 0,0 km/h (0 Bft)
18.02.2015 02:15 -3,6 C 1,0 C 86 % 86 % 1037,6 hPa 0,0 l/m 0,3 km/h (0 Bft) W 270 -5,6 C -4,1 C 0,0 km/h (0 Bft)
18.02.2015 02:20 -3,6 C 1,0 C 86 % 86 % 1037,6 hPa 0,0 l/m 0,2 km/h (0 Bft) N-NO 22 -5,6 C -4,1 C 0,0 km/h (0 Bft)
18.02.2015 02:25 -3,6 C 1,1 C 86 % 86 % 1037,6 hPa 0,0 l/m 0,5 km/h (0 Bft) N-NO 22 -5,6 C -4,1 C 1,9 km/h (1 Bft)
18.02.2015 02:30 -3,6 C 1,1 C 86 % 86 % 1037,6 hPa 0,0 l/m 0,5 km/h (0 Bft) O-NO 67 -5,6 C -4,1 C 0,0 km/h (0 Bft)
18.02.2015 02:35 -3,6 C 1,1 C 86 % 86 % 1037,7 hPa 0,0 l/m 0,3 km/h (0 Bft) W-SW 247 -5,6 C -4,1 C 0,0 km/h (0 Bft)
18.02.2015 02:40 -3,6 C 1,1 C 86 % 86 % 1037,7 hPa 0,0 l/m 0,0 km/h (0 Bft) NO 45 -5,6 C -4,1 C 0,0 km/h (0 Bft)
18.02.2015 02:45 -3,6 C 1,1 C 86 % 86 % 1037,7 hPa 0,0 l/m 0,0 km/h (0 Bft) O-SO 112 -5,6 C -4,1 C 0,0 km/h (0 Bft)
18.02.2015 02:50 -3,6 C 1,1 C 86 % 86 % 1037,7 hPa 0,0 l/m 0,0 km/h (0 Bft) S 180 -5,6 C -4,2 C 0,0 km/h (0 Bft)
18.02.2015 02:55 -3,7 C 1,1 C 86 % 86 % 1037,4 hPa 0,0 l/m 0,0 km/h (0 Bft) W 270 -5,7 C -4,2 C 0,0 km/h (0 Bft)
18.02.2015 03:00 -3,7 C 1,1 C 85 % 85 % 1037,4 hPa 0,0 l/m 0,0 km/h (0 Bft) W 270 -5,8 C -4,2 C 0,0 km/h (0 Bft)
18.02.2015 03:05 -3,7 C 1,1 C 85 % 85 % 1037,4 hPa 0,0 l/m 0,0 km/h (0 Bft) W 270 -5,8 C -4,2 C 0,0 km/h (0 Bft)
18.02.2015 03:10 -3,7 C 1,1 C 85 % 85 % 1037,4 hPa 0,0 l/m 0,0 km/h (0 Bft) NW 315 -5,8 C -4,2 C 0,0 km/h (0 Bft)
18.02.2015 03:15 -3,7 C 1,1 C 85 % 85 % 1037,2 hPa 0,0 l/m 0,0 km/h (0 Bft) NW 315 -5,8 C -4,3 C 0,0 km/h (0 Bft)
18.02.2015 03:20 -3,7 C 1,1 C 85 % 85 % 1037,2 hPa 0,0 l/m 0,0 km/h (0 Bft) W 270 -5,8 C -4,3 C 0,0 km/h (0 Bft)
18.02.2015 03:25 -3,8 C 1,1 C 85 % 85 % 1037,2 hPa 0,0 l/m 0,6 km/h (0 Bft) N-NW 337 -5,9 C -4,3 C 0,0 km/h (0 Bft)
18.02.2015 03:30 -3,8 C 1,1 C 85 % 85 % 1037,2 hPa 0,0 l/m 1,8 km/h (1 Bft) O-NO 67 -5,9 C -4,3 C 3,2 km/h (1 Bft)
18.02.2015 03:35 -3,8 C 1,1 C 85 % 85 % 1036,9 hPa 0,0 l/m 2,1 km/h (1 Bft) N-NO 22 -5,9 C -4,3 C 4,2 km/h (1 Bft)
18.02.2015 03:40 -3,8 C 1,1 C 86 % 86 % 1036,9 hPa 0,0 l/m 1,9 km/h (1 Bft) NW 315 -5,8 C -4,3 C 5,6 km/h (1 Bft)
18.02.2015 03:45 -3,8 C 1,1 C 86 % 86 % 1036,9 hPa 0,0 l/m 1,0 km/h (0 Bft) N-NO 22 -5,8 C -4,3 C 1,6 km/h (1 Bft)
18.02.2015 03:50 -3,8 C 1,1 C 86 % 86 % 1036,9 hPa 0,0 l/m 0,8 km/h (0 Bft) O-NO 67 -5,8 C -4,3 C 0,0 km/h (0 Bft)
18.02.2015 03:55 -3,8 C 1,1 C 86 % 86 % 1036,8 hPa 0,0 l/m 1,0 km/h (0 Bft) N-NO 22 -5,8 C -4,3 C 0,0 km/h (0 Bft)
18.02.2015 04:00 -3,8 C 1,1 C 86 % 86 % 1036,8 hPa 0,0 l/m 1,3 km/h (1 Bft) N-NO 22 -5,8 C -4,4 C 2,9 km/h (1 Bft)
18.02.2015 04:05 -3,9 C 1,1 C 86 % 86 % 1036,8 hPa 0,0 l/m 2,1 km/h (1 Bft) NO 45 -5,9 C -4,4 C 3,4 km/h (1 Bft)
18.02.2015 04:10 -3,9 C 1,1 C 86 % 86 % 1036,8 hPa 0,0 l/m 2,3 km/h (1 Bft) NO 45 -5,9 C -4,6 C 0,0 km/h (0 Bft)
18.02.2015 04:15 -3,9 C 1,1 C 86 % 86 % 1036,8 hPa 0,0 l/m 1,9 km/h (1 Bft) N-NO 22 -5,9 C -4,4 C 1,9 km/h (1 Bft)
18.02.2015 04:20 -3,9 C 1,1 C 86 % 86 % 1036,8 hPa 0,0 l/m 1,6 km/h (1 Bft) N 360 -5,9 C -4,4 C 1,9 km/h (1 Bft)
18.02.2015 04:25 -3,9 C 1,1 C 86 % 86 % 1036,8 hPa 0,0 l/m 1,9 km/h (1 Bft) NO 45 -5,9 C -4,4 C 3,7 km/h (1 Bft)
18.02.2015 04:30 -3,9 C 1,1 C 86 % 86 % 1036,8 hPa 0,0 l/m 2,4 km/h (1 Bft) NO 45 -5,9 C -4,7 C 3,4 km/h (1 Bft)
18.02.2015 04:35 -3,9 C 1,1 C 86 % 86 % 1036,9 hPa 0,0 l/m 2,3 km/h (1 Bft) N-NO 22 -5,9 C -4,6 C 1,8 km/h (1 Bft)
18.02.2015 04:40 -3,9 C 1,1 C 86 % 86 % 1036,9 hPa 0,0 l/m 1,9 km/h (1 Bft) N-NO 22 -5,9 C -4,4 C 2,6 km/h (1 Bft)
18.02.2015 04:45 -4,0 C 1,1 C 86 % 86 % 1036,9 hPa 0,0 l/m 1,4 km/h (1 Bft) NO 45 -6,0 C -4,4 C 4,0 km/h (1 Bft)
18.02.2015 04:50 -4,0 C 1,1 C 86 % 86 % 1036,9 hPa 0,0 l/m 1,8 km/h (1 Bft) N-NO 22 -6,0 C -4,5 C 1,8 km/h (1 Bft)
18.02.2015 04:55 -4,0 C 1,1 C 86 % 86 % 1036,8 hPa 0,0 l/m 2,1 km/h (1 Bft) NO 45 -6,0 C -4,5 C 1,8 km/h (1 Bft)
18.02.2015 05:00 -4,0 C 1,1 C 86 % 86 % 1036,8 hPa 0,0 l/m 1,9 km/h (1 Bft) NO 45 -6,0 C -4,5 C 0,0 km/h (0 Bft)
18.02.2015 05:05 -4,0 C 1,1 C 86 % 86 % 1036,8 hPa 0,0 l/m 2,1 km/h (1 Bft) O 90 -6,0 C -4,5 C 1,9 km/h (1 Bft)
18.02.2015 05:10 -4,0 C 1,1 C 86 % 86 % 1036,8 hPa 0,0 l/m 2,3 km/h (1 Bft) N-NO 22 -6,0 C -4,7 C 3,7 km/h (1 Bft)
18.02.2015 05:15 -4,1 C 1,1 C 86 % 86 % 1036,9 hPa 0,0 l/m 2,6 km/h (1 Bft) N-NO 22 -6,1 C -5,1 C 0,0 km/h (0 Bft)
18.02.2015 05:20 -4,0 C 1,1 C 86 % 86 % 1036,9 hPa 0,0 l/m 1,9 km/h (1 Bft) N-NW 337 -6,0 C -4,5 C 3,7 km/h (1 Bft)
18.02.2015 05:25 -4,1 C 1,1 C 86 % 86 % 1036,9 hPa 0,0 l/m 1,8 km/h (1 Bft) N-NO 22 -6,1 C -4,5 C 2,9 km/h (1 Bft)
18.02.2015 05:30 -4,1 C 1,1 C 86 % 86 % 1036,9 hPa 0,0 l/m 1,1 km/h (1 Bft) NO 45 -6,1 C -4,6 C 1,6 km/h (1 Bft)
18.02.2015 05:35 -4,1 C 1,1 C 86 % 86 % 1036,9 hPa 0,0 l/m 1,0 km/h (0 Bft) NO 45 -6,1 C -4,6 C 0,0 km/h (0 Bft)
18.02.2015 05:40 -4,1 C 1,1 C 86 % 86 % 1036,9 hPa 0,0 l/m 1,8 km/h (1 Bft) W-SW 247 -6,1 C -4,6 C 0,0 km/h (0 Bft)
18.02.2015 05:45 -4,0 C 1,1 C 86 % 86 % 1036,9 hPa 0,0 l/m 1,8 km/h (1 Bft) N-NO 22 -6,0 C -4,6 C 0,0 km/h (0 Bft)
18.02.2015 05:50 -4,0 C 1,1 C 86 % 86 % 1036,9 hPa 0,0 l/m 1,4 km/h (1 Bft) NO 45 -6,0 C -4,6 C 0,0 km/h (0 Bft)
18.02.2015 05:55 -4,0 C 1,1 C 86 % 86 % 1036,9 hPa 0,0 l/m 1,8 km/h (1 Bft) N-NO 22 -6,0 C -4,6 C 0,0 km/h (0 Bft)
18.02.2015 06:00 -4,1 C 1,1 C 86 % 86 % 1036,9 hPa 0,0 l/m 2,9 km/h (1 Bft) N-NO 22 -6,1 C -5,4 C 6,4 km/h (2 Bft)
18.02.2015 06:05 -4,1 C 1,1 C 86 % 86 % 1036,9 hPa 0,0 l/m 3,1 km/h (1 Bft) NW 315 -6,1 C -5,6 C 0,0 km/h (0 Bft)
18.02.2015 06:10 -4,0 C 1,1 C 86 % 86 % 1036,9 hPa 0,0 l/m 0,5 km/h (0 Bft) NO 45 -6,0 C -4,6 C 0,0 km/h (0 Bft)
18.02.2015 06:15 -4,0 C 1,1 C 86 % 86 % 1037,1 hPa 0,0 l/m 0,2 km/h (0 Bft) O-NO 67 -6,0 C -4,5 C 0,0 km/h (0 Bft)
18.02.2015 06:20 -4,0 C 1,1 C 86 % 86 % 1037,1 hPa 0,0 l/m 0,3 km/h (0 Bft) O-NO 67 -6,0 C -4,5 C 0,0 km/h (0 Bft)
18.02.2015 06:25 -4,0 C 1,1 C 86 % 86 % 1037,1 hPa 0,0 l/m 0,8 km/h (0 Bft) N-NO 22 -6,0 C -4,5 C 4,3 km/h (1 Bft)
18.02.2015 06:30 -4,0 C 1,1 C 86 % 86 % 1037,1 hPa 0,0 l/m 1,8 km/h (1 Bft) NO 45 -6,0 C -4,5 C 1,6 km/h (1 Bft)
18.02.2015 06:35 -4,0 C 1,1 C 86 % 86 % 1037,2 hPa 0,0 l/m 2,6 km/h (1 Bft) N-NO 22 -6,0 C -5,1 C 2,4 km/h (1 Bft)
18.02.2015 06:40 -4,0 C 1,1 C 86 % 86 % 1037,2 hPa 0,0 l/m 2,4 km/h (1 Bft) O-NO 67 -6,0 C -4,9 C 2,1 km/h (1 Bft)
18.02.2015 06:45 -4,0 C 1,1 C 86 % 86 % 1037,2 hPa 0,0 l/m 1,9 km/h (1 Bft) O-SO 112 -6,0 C -4,5 C 2,1 km/h (1 Bft)
18.02.2015 06:50 -4,0 C 1,1 C 87 % 87 % 1037,2 hPa 0,0 l/m 1,8 km/h (1 Bft) O-NO 67 -5,8 C -4,5 C 2,6 km/h (1 Bft)
18.02.2015 06:55 -4,0 C 1,1 C 87 % 87 % 1037,2 hPa 0,0 l/m 2,1 km/h (1 Bft) N 360 -5,8 C -4,5 C 2,6 km/h (1 Bft)
18.02.2015 07:00 -4,0 C 1,1 C 87 % 87 % 1037,2 hPa 0,0 l/m 2,9 km/h (1 Bft) NO 45 -5,8 C -5,3 C 6,6 km/h (2 Bft)
18.02.2015 07:05 -4,0 C 1,1 C 87 % 87 % 1037,2 hPa 0,0 l/m 3,2 km/h (1 Bft) NW 315 -5,8 C -5,6 C 0,0 km/h (0 Bft)
18.02.2015 07:10 -4,0 C 1,1 C 87 % 87 % 1037,2 hPa 0,0 l/m 2,9 km/h (1 Bft) NW 315 -5,8 C -5,3 C 1,6 km/h (1 Bft)
18.02.2015 07:15 -4,0 C 1,1 C 87 % 87 % 1037,4 hPa 0,0 l/m 2,6 km/h (1 Bft) N-NO 22 -5,8 C -5,1 C 4,3 km/h (1 Bft)
18.02.2015 07:20 -4,0 C 1,1 C 87 % 87 % 1037,4 hPa 0,0 l/m 2,1 km/h (1 Bft) NO 45 -5,8 C -4,5 C 1,8 km/h (1 Bft)
18.02.2015 07:25 -3,9 C 1,1 C 87 % 87 % 1037,4 hPa 0,0 l/m 1,6 km/h (1 Bft) N-NO 22 -5,7 C -4,5 C 2,1 km/h (1 Bft)
18.02.2015 07:30 -3,9 C 1,1 C 87 % 87 % 1037,4 hPa 0,0 l/m 1,6 km/h (1 Bft) O-NO 67 -5,7 C -4,4 C 3,9 km/h (1 Bft)
18.02.2015 07:35 -3,9 C 1,1 C 87 % 87 % 1037,5 hPa 0,0 l/m 1,9 km/h (1 Bft) NO 45 -5,7 C -4,4 C 2,9 km/h (1 Bft)
18.02.2015 07:40 -3,9 C 1,1 C 87 % 87 % 1037,5 hPa 0,0 l/m 3,1 km/h (1 Bft) N-NO 22 -5,7 C -5,3 C 6,8 km/h (2 Bft)
18.02.2015 07:45 -3,9 C 1,1 C 87 % 87 % 1037,5 hPa 0,0 l/m 3,7 km/h (1 Bft) NO 45 -5,7 C -5,8 C 2,3 km/h (1 Bft)
18.02.2015 07:50 -3,9 C 1,1 C 87 % 87 % 1037,5 hPa 0,0 l/m 3,4 km/h (1 Bft) O-NO 67 -5,7 C -5,6 C 7,2 km/h (2 Bft)
18.02.2015 07:55 -3,9 C 1,1 C 87 % 87 % 1037,7 hPa 0,0 l/m 3,1 km/h (1 Bft) NO 45 -5,7 C -5,3 C 5,8 km/h (2 Bft)
18.02.2015 08:00 -4,0 C 1,1 C 87 % 87 % 1037,7 hPa 0,0 l/m 3,4 km/h (1 Bft) N-NO 22 -5,8 C -5,4 C 3,1 km/h (1 Bft)
18.02.2015 08:05 -3,9 C 1,1 C 87 % 87 % 1037,7 hPa 0,0 l/m 3,4 km/h (1 Bft) N-NO 22 -5,7 C -5,4 C 2,4 km/h (1 Bft)
18.02.2015 08:10 -3,9 C 1,1 C 87 % 87 % 1037,7 hPa 0,0 l/m 3,2 km/h (1 Bft) N-NO 22 -5,7 C -5,3 C 4,5 km/h (1 Bft)
18.02.2015 08:15 -3,9 C 1,1 C 87 % 87 % 1037,8 hPa 0,0 l/m 3,4 km/h (1 Bft) N-NO 22 -5,7 C -5,4 C 3,7 km/h (1 Bft)
18.02.2015 08:20 -3,8 C 1,1 C 87 % 87 % 1037,8 hPa 0,0 l/m 3,4 km/h (1 Bft) NO 45 -5,6 C -5,3 C 7,6 km/h (2 Bft)
18.02.2015 08:25 -3,8 C 1,1 C 87 % 87 % 1037,8 hPa 0,0 l/m 3,7 km/h (1 Bft) NO 45 -5,6 C -5,6 C 5,1 km/h (1 Bft)
18.02.2015 08:30 -3,7 C 1,1 C 87 % 87 % 1037,8 hPa 0,0 l/m 3,9 km/h (1 Bft) N-NO 22 -5,5 C -5,6 C 8,7 km/h (2 Bft)
18.02.2015 08:35 -3,7 C 1,1 C 87 % 87 % 1037,9 hPa 0,0 l/m 3,4 km/h (1 Bft) NO 45 -5,5 C -5,2 C 4,5 km/h (1 Bft)
18.02.2015 08:40 -3,7 C 1,1 C 87 % 87 % 1037,9 hPa 0,0 l/m 3,5 km/h (1 Bft) NO 45 -5,5 C -5,3 C 4,2 km/h (1 Bft)
18.02.2015 08:45 -3,6 C 1,1 C 87 % 87 % 1037,9 hPa 0,0 l/m 3,4 km/h (1 Bft) N-NO 22 -5,4 C -5,1 C 4,5 km/h (1 Bft)
18.02.2015 08:50 -3,6 C 1,1 C 87 % 87 % 1037,9 hPa 0,0 l/m 2,9 km/h (1 Bft) W-SW 247 -5,4 C -4,6 C 2,9 km/h (1 Bft)
18.02.2015 08:55 -3,5 C 1,1 C 87 % 87 % 1037,9 hPa 0,0 l/m 3,4 km/h (1 Bft) N-NO 22 -5,3 C -5,0 C 2,7 km/h (1 Bft)
18.02.2015 09:00 -3,4 C 1,1 C 87 % 87 % 1037,9 hPa 0,0 l/m 2,9 km/h (1 Bft) NO 45 -5,2 C -4,5 C 3,9 km/h (1 Bft)
18.02.2015 09:05 -3,4 C 1,1 C 87 % 87 % 1037,9 hPa 0,0 l/m 3,1 km/h (1 Bft) NO 45 -5,2 C -4,8 C 5,5 km/h (1 Bft)
18.02.2015 09:10 -3,5 C 1,1 C 87 % 87 % 1037,9 hPa 0,0 l/m 3,2 km/h (1 Bft) NO 45 -5,3 C -4,7 C 5,1 km/h (1 Bft)
18.02.2015 09:15 -3,4 C 1,1 C 87 % 87 % 1037,9 hPa 0,0 l/m 3,9 km/h (1 Bft) O 90 -5,2 C -5,2 C 4,3 km/h (1 Bft)
18.02.2015 09:20 -3,3 C 1,1 C 87 % 87 % 1037,9 hPa 0,0 l/m 3,4 km/h (1 Bft) NW 315 -5,1 C -4,8 C 2,9 km/h (1 Bft)
18.02.2015 09:25 -3,3 C 1,1 C 87 % 87 % 1037,9 hPa 0,0 l/m 2,9 km/h (1 Bft) O 90 -5,1 C -4,3 C 6,1 km/h (2 Bft)
18.02.2015 09:30 -3,3 C 1,1 C 87 % 87 % 1037,9 hPa 0,0 l/m 3,4 km/h (1 Bft) N-NW 337 -5,1 C -4,7 C 4,5 km/h (1 Bft)
18.02.2015 09:35 -3,3 C 1,1 C 87 % 87 % 1038,1 hPa 0,0 l/m 3,7 km/h (1 Bft) NO 45 -5,1 C -4,9 C 5,8 km/h (2 Bft)
18.02.2015 09:40 -3,3 C 1,1 C 87 % 87 % 1038,1 hPa 0,0 l/m 3,5 km/h (1 Bft) O-NO 67 -5,1 C -4,8 C 4,8 km/h (1 Bft)
18.02.2015 09:45 -3,3 C 1,1 C 87 % 87 % 1038,1 hPa 0,0 l/m 3,4 km/h (1 Bft) O-NO 67 -5,1 C -4,6 C 3,7 km/h (1 Bft)
18.02.2015 09:50 -3,3 C 1,1 C 87 % 87 % 1038,1 hPa 0,0 l/m 3,4 km/h (1 Bft) N-NO 22 -5,1 C -4,4 C 12,2 km/h (2 Bft)
18.02.2015 09:55 -3,3 C 1,1 C 86 % 86 % 1038,2 hPa 0,0 l/m 3,5 km/h (1 Bft) NO 45 -5,3 C -4,4 C 3,1 km/h (1 Bft)
18.02.2015 10:00 -3,3 C 1,1 C 86 % 86 % 1038,2 hPa 0,0 l/m 4,2 km/h (1 Bft) NW 315 -5,3 C -4,8 C 3,4 km/h (1 Bft)
18.02.2015 10:05 -3,3 C 1,1 C 86 % 86 % 1038,2 hPa 0,0 l/m 4,0 km/h (1 Bft) N-NO 22 -5,3 C -4,8 C 3,4 km/h (1 Bft)
18.02.2015 10:10 -3,3 C 1,1 C 86 % 86 % 1038,2 hPa 0,0 l/m 4,0 km/h (1 Bft) NO 45 -5,3 C -4,7 C 6,8 km/h (2 Bft)
18.02.2015 10:15 -3,3 C 1,1 C 86 % 86 % 1038,0 hPa 0,0 l/m 4,5 km/h (1 Bft) N 360 -5,3 C -5,0 C 4,3 km/h (1 Bft)
18.02.2015 10:20 -3,3 C 1,1 C 86 % 86 % 1038,0 hPa 0,0 l/m 4,5 km/h (1 Bft) O-NO 67 -5,3 C -5,0 C 5,3 km/h (1 Bft)
18.02.2015 10:25 -3,3 C 1,1 C 86 % 86 % 1038,0 hPa 0,0 l/m 4,0 km/h (1 Bft) NO 45 -5,3 C -4,6 C 5,5 km/h (1 Bft)
18.02.2015 10:30 -3,3 C 1,1 C 85 % 85 % 1038,0 hPa 0,0 l/m 4,0 km/h (1 Bft) N-NO 22 -5,5 C -4,6 C 3,9 km/h (1 Bft)
18.02.2015 10:35 -3,3 C 1,1 C 85 % 85 % 1038,1 hPa 0,0 l/m 3,9 km/h (1 Bft) SO 135 -5,5 C -4,3 C 1,8 km/h (1 Bft)
18.02.2015 10:40 -3,3 C 1,1 C 85 % 85 % 1038,1 hPa 0,0 l/m 3,4 km/h (1 Bft) O-NO 67 -5,5 C -4,0 C 2,9 km/h (1 Bft)
18.02.2015 10:45 -3,3 C 1,1 C 85 % 85 % 1038,1 hPa 0,0 l/m 3,4 km/h (1 Bft) NO 45 -5,5 C -3,9 C 3,4 km/h (1 Bft)
18.02.2015 10:50 -3,3 C 1,1 C 85 % 85 % 1038,1 hPa 0,0 l/m 3,7 km/h (1 Bft) N-NO 22 -5,5 C -3,9 C 3,1 km/h (1 Bft)
18.02.2015 10:55 -3,3 C 1,1 C 84 % 84 % 1038,2 hPa 0,0 l/m 3,7 km/h (1 Bft) SO 135 -5,6 C -3,9 C 5,1 km/h (1 Bft)
18.02.2015 11:00 -3,3 C 1,1 C 84 % 84 % 1038,2 hPa 0,0 l/m 3,7 km/h (1 Bft) N 360 -5,6 C -3,8 C 3,9 km/h (1 Bft)
18.02.2015 11:05 -3,3 C 1,1 C 84 % 84 % 1038,2 hPa 0,0 l/m 3,5 km/h (1 Bft) NW 315 -5,6 C -3,6 C 4,5 km/h (1 Bft)
18.02.2015 11:10 -3,3 C 1,1 C 83 % 83 % 1038,2 hPa 0,0 l/m 3,2 km/h (1 Bft) NO 45 -5,8 C -3,1 C 7,6 km/h (2 Bft)
18.02.2015 11:15 -3,3 C 1,1 C 83 % 83 % 1038,1 hPa 0,0 l/m 4,0 km/h (1 Bft) O-NO 67 -5,8 C -3,6 C 6,3 km/h (2 Bft)
18.02.2015 11:20 -3,3 C 1,1 C 83 % 83 % 1038,1 hPa 0,0 l/m 4,3 km/h (1 Bft) NO 45 -5,8 C -3,7 C 4,8 km/h (1 Bft)
18.02.2015 11:25 -3,3 C 1,1 C 83 % 83 % 1038,1 hPa 0,0 l/m 3,1 km/h (1 Bft) NO 45 -5,8 C -2,7 C 3,9 km/h (1 Bft)
18.02.2015 11:30 -3,3 C 1,1 C 82 % 82 % 1038,1 hPa 0,0 l/m 2,9 km/h (1 Bft) N-NO 22 -5,9 C -2,2 C 7,9 km/h (2 Bft)
18.02.2015 11:35 -3,3 C 1,1 C 82 % 82 % 1038,2 hPa 0,0 l/m 3,4 km/h (1 Bft) NO 45 -5,9 C -2,4 C 5,3 km/h (1 Bft)
18.02.2015 11:40 -3,3 C 1,1 C 81 % 81 % 1038,2 hPa 0,0 l/m 4,2 km/h (1 Bft) N 360 -6,1 C -3,0 C 4,3 km/h (1 Bft)
18.02.2015 11:45 -3,3 C 1,1 C 81 % 81 % 1038,2 hPa 0,0 l/m 4,2 km/h (1 Bft) N-NO 22 -6,1 C -3,0 C 5,0 km/h (1 Bft)
18.02.2015 11:50 -3,3 C 1,1 C 80 % 80 % 1038,2 hPa 0,0 l/m 4,2 km/h (1 Bft) SO 135 -6,2 C -3,0 C 3,9 km/h (1 Bft)
18.02.2015 11:55 -3,3 C 1,1 C 80 % 80 % 1038,2 hPa 0,0 l/m 3,9 km/h (1 Bft) N-NW 337 -6,2 C -2,7 C 2,3 km/h (1 Bft)
18.02.2015 12:00 -3,3 C 1,1 C 80 % 80 % 1038,2 hPa 0,0 l/m 2,7 km/h (1 Bft) NO 45 -6,2 C -1,6 C 4,2 km/h (1 Bft)
18.02.2015 12:05 -3,3 C 1,1 C 80 % 80 % 1038,2 hPa 0,0 l/m 2,4 km/h (1 Bft) N-NW 337 -6,2 C -1,2 C 3,9 km/h (1 Bft)
18.02.2015 12:10 -3,3 C 1,0 C 79 % 79 % 1038,2 hPa 0,0 l/m 2,4 km/h (1 Bft) N-NW 337 -6,4 C -0,7 C 4,7 km/h (1 Bft)
18.02.2015 12:15 -3,3 C 1,0 C 79 % 79 % 1037,8 hPa 0,0 l/m 2,6 km/h (1 Bft) N-NO 22 -6,4 C -0,8 C 4,5 km/h (1 Bft)
18.02.2015 12:20 -3,3 C 1,0 C 78 % 78 % 1037,8 hPa 0,0 l/m 3,5 km/h (1 Bft) N-NO 22 -6,6 C -1,4 C 4,0 km/h (1 Bft)
18.02.2015 12:25 -3,3 C 1,0 C 78 % 78 % 1037,8 hPa 0,0 l/m 4,0 km/h (1 Bft) N-NW 337 -6,6 C -1,8 C 6,8 km/h (2 Bft)
18.02.2015 12:30 -3,3 C 1,0 C 78 % 78 % 1037,8 hPa 0,0 l/m 5,0 km/h (1 Bft) NO 45 -6,6 C -2,4 C 7,7 km/h (2 Bft)
18.02.2015 12:35 -3,3 C 1,0 C 77 % 77 % 1037,8 hPa 0,0 l/m 5,6 km/h (1 Bft) O-NO 67 -6,7 C -2,6 C 9,8 km/h (2 Bft)
18.02.2015 12:40 -3,3 C 1,0 C 77 % 77 % 1037,8 hPa 0,0 l/m 5,5 km/h (1 Bft) O-NO 67 -6,7 C -2,6 C 7,4 km/h (2 Bft)
18.02.2015 12:45 -3,3 C 1,0 C 77 % 77 % 1037,8 hPa 0,0 l/m 5,1 km/h (1 Bft) N-NO 22 -6,7 C -2,5 C 7,6 km/h (2 Bft)
18.02.2015 12:50 -3,3 C 1,0 C 77 % 77 % 1037,8 hPa 0,0 l/m 4,8 km/h (1 Bft) O-NO 67 -6,7 C -2,2 C 5,6 km/h (1 Bft)
18.02.2015 12:55 -3,3 C 1,0 C 77 % 77 % 1037,6 hPa 0,0 l/m 4,8 km/h (1 Bft) NO 45 -6,7 C -2,4 C 7,1 km/h (2 Bft)
18.02.2015 13:00 -3,3 C 1,1 C 77 % 77 % 1037,6 hPa 0,0 l/m 4,3 km/h (1 Bft) N-NO 22 -6,7 C -2,4 C 6,4 km/h (2 Bft)
18.02.2015 13:05 -3,3 C 1,1 C 77 % 77 % 1037,6 hPa 0,0 l/m 4,3 km/h (1 Bft) N-NO 22 -6,7 C -2,7 C 6,6 km/h (2 Bft)
18.02.2015 13:10 -3,3 C 1,1 C 77 % 77 % 1037,6 hPa 0,0 l/m 4,8 km/h (1 Bft) NO 45 -6,7 C -2,9 C 3,2 km/h (1 Bft)
18.02.2015 13:15 -3,3 C 1,1 C 77 % 77 % 1037,4 hPa 0,0 l/m 5,0 km/h (1 Bft) N-NO 22 -6,7 C -3,0 C 10,0 km/h (2 Bft)
18.02.2015 13:20 -3,3 C 1,1 C 77 % 77 % 1037,4 hPa 0,0 l/m 4,5 km/h (1 Bft) NO 45 -6,7 C -2,6 C 12,7 km/h (3 Bft)
18.02.2015 13:25 -1,3 C 1,1 C 77 % 77 % 1037,4 hPa 0,0 l/m 4,2 km/h (1 Bft) NO 45 -4,8 C -2,3 C 6,6 km/h (2 Bft)
18.02.2015 13:30 -1,2 C 1,0 C 77 % 77 % 1037,4 hPa 0,0 l/m 5,0 km/h (1 Bft) NO 45 -4,7 C -2,3 C 9,5 km/h (2 Bft)
18.02.2015 13:35 -0,9 C 1,0 C 76 % 76 % 1037,0 hPa 0,0 l/m 5,1 km/h (1 Bft) SO 135 -4,6 C -2,0 C 4,7 km/h (1 Bft)
18.02.2015 13:40 -1,0 C 1,0 C 76 % 76 % 1037,0 hPa 0,0 l/m 5,5 km/h (1 Bft) NO 45 -4,7 C -1,8 C 7,4 km/h (2 Bft)
18.02.2015 13:45 -1,0 C 1,0 C 76 % 76 % 1037,0 hPa 0,0 l/m 5,0 km/h (1 Bft) N-NO 22 -4,7 C -1,4 C 4,5 km/h (1 Bft)
18.02.2015 13:50 -0,7 C 1,0 C 75 % 75 % 1037,0 hPa 0,0 l/m 5,0 km/h (1 Bft) O-NO 67 -4,6 C -1,4 C 5,0 km/h (1 Bft)
18.02.2015 13:55 -1,1 C 1,0 C 75 % 75 % 1036,9 hPa 0,0 l/m 5,3 km/h (1 Bft) O-NO 67 -5,0 C -1,6 C 3,7 km/h (1 Bft)
18.02.2015 14:00 -1,3 C 1,0 C 75 % 75 % 1036,9 hPa 0,0 l/m 5,5 km/h (1 Bft) N-NO 22 -5,1 C -2,1 C 12,9 km/h (3 Bft)
18.02.2015 14:05 -0,9 C 1,0 C 75 % 75 % 1036,9 hPa 0,0 l/m 5,0 km/h (1 Bft) NO 45 -4,8 C -1,8 C 4,8 km/h (1 Bft)
18.02.2015 14:10 -0,8 C 1,0 C 75 % 75 % 1036,9 hPa 0,0 l/m 4,3 km/h (1 Bft) NO 45 -4,7 C -1,2 C 6,8 km/h (2 Bft)
18.02.2015 14:15 -0,8 C 1,0 C 75 % 75 % 1036,8 hPa 0,0 l/m 4,5 km/h (1 Bft) NO 45 -4,7 C -1,1 C 5,1 km/h (1 Bft)
18.02.2015 14:20 -0,9 C 1,0 C 75 % 75 % 1036,8 hPa 0,0 l/m 4,7 km/h (1 Bft) NO 45 -4,8 C -1,3 C 3,7 km/h (1 Bft)
18.02.2015 14:25 -0,9 C 1,0 C 75 % 75 % 1036,8 hPa 0,0 l/m 5,1 km/h (1 Bft) N-NO 22 -4,8 C -1,6 C 6,1 km/h (2 Bft)
18.02.2015 14:30 -0,8 C 1,0 C 75 % 75 % 1036,8 hPa 0,0 l/m 4,8 km/h (1 Bft) O-NO 67 -4,7 C -1,4 C 5,5 km/h (1 Bft)
18.02.2015 14:35 -0,8 C 1,0 C 74 % 74 % 1036,9 hPa 0,0 l/m 4,7 km/h (1 Bft) NO 45 -4,8 C -1,3 C 6,4 km/h (2 Bft)
18.02.2015 14:40 -0,9 C 1,0 C 74 % 74 % 1036,9 hPa 0,0 l/m 5,0 km/h (1 Bft) O 90 -4,9 C -1,6 C 7,9 km/h (2 Bft)
18.02.2015 14:45 -0,9 C 1,0 C 74 % 74 % 1036,9 hPa 0,0 l/m 5,0 km/h (1 Bft) O-NO 67 -4,9 C -1,7 C 6,3 km/h (2 Bft)
18.02.2015 14:50 -0,6 C 1,0 C 74 % 74 % 1036,9 hPa 0,0 l/m 4,2 km/h (1 Bft) N-NO 22 -4,6 C -1,2 C 5,1 km/h (1 Bft)
18.02.2015 14:55 -0,9 C 1,0 C 74 % 74 % 1036,6 hPa 0,0 l/m 3,9 km/h (1 Bft) N-NO 22 -4,9 C -0,9 C 4,0 km/h (1 Bft)
18.02.2015 15:00 -0,8 C 1,0 C 74 % 74 % 1036,6 hPa 0,0 l/m 3,2 km/h (1 Bft) NO 45 -4,8 C -0,2 C 6,0 km/h (2 Bft)
18.02.2015 15:05 -0,8 C 1,0 C 74 % 74 % 1036,6 hPa 0,0 l/m 3,1 km/h (1 Bft) NO 45 -4,8 C -0,2 C 5,1 km/h (1 Bft)
18.02.2015 15:10 -0,8 C 1,0 C 74 % 74 % 1036,6 hPa 0,0 l/m 4,0 km/h (1 Bft) SO 135 -4,8 C -1,0 C 4,8 km/h (1 Bft)
18.02.2015 15:15 -0,5 C 1,0 C 74 % 74 % 1036,2 hPa 0,0 l/m 3,2 km/h (1 Bft) NO 45 -4,5 C -0,5 C 5,3 km/h (1 Bft)
18.02.2015 15:20 -1,0 C 1,0 C 74 % 74 % 1036,2 hPa 0,0 l/m 3,4 km/h (1 Bft) O-NO 67 -5,0 C -0,9 C 8,2 km/h (2 Bft)
18.02.2015 15:25 -1,1 C 1,0 C 74 % 74 % 1036,2 hPa 0,0 l/m 4,3 km/h (1 Bft) NO 45 -5,1 C -1,6 C 3,5 km/h (1 Bft)
18.02.2015 15:30 -1,1 C 1,0 C 75 % 75 % 1036,2 hPa 0,0 l/m 4,5 km/h (1 Bft) N-NO 22 -5,0 C -1,8 C 8,2 km/h (2 Bft)
18.02.2015 15:35 -1,3 C 1,0 C 75 % 75 % 1036,2 hPa 0,0 l/m 4,8 km/h (1 Bft) N-NW 337 -5,1 C -2,3 C 4,7 km/h (1 Bft)
18.02.2015 15:40 -1,4 C 1,1 C 75 % 75 % 1036,2 hPa 0,0 l/m 5,3 km/h (1 Bft) N-NO 22 -5,2 C -2,7 C 4,0 km/h (1 Bft)
18.02.2015 15:45 -1,6 C 1,1 C 76 % 76 % 1036,2 hPa 0,0 l/m 5,0 km/h (1 Bft) NO 45 -5,3 C -2,7 C 5,3 km/h (1 Bft)
18.02.2015 15:50 -1,6 C 1,1 C 76 % 76 % 1036,2 hPa 0,0 l/m 4,7 km/h (1 Bft) NO 45 -5,3 C -2,9 C 6,6 km/h (2 Bft)
18.02.2015 15:55 -1,9 C 1,1 C 76 % 76 % 1036,1 hPa 0,0 l/m 5,5 km/h (1 Bft) N-NO 22 -5,6 C -3,5 C 6,8 km/h (2 Bft)
18.02.2015 16:00 -1,9 C 1,1 C 77 % 77 % 1036,1 hPa 0,0 l/m 5,1 km/h (1 Bft) N-NO 22 -5,4 C -3,7 C 8,0 km/h (2 Bft)
18.02.2015 16:05 -2,1 C 1,1 C 77 % 77 % 1036,1 hPa 0,0 l/m 4,2 km/h (1 Bft) O 90 -5,6 C -3,3 C 1,9 km/h (1 Bft)
18.02.2015 16:10 -2,0 C 1,1 C 78 % 78 % 1036,1 hPa 0,0 l/m 4,2 km/h (1 Bft) O-NO 67 -5,3 C -3,6 C 5,0 km/h (1 Bft)
18.02.2015 16:15 -1,9 C 1,1 C 78 % 78 % 1035,5 hPa 0,0 l/m 3,7 km/h (1 Bft) N-NO 22 -5,2 C -3,1 C 7,4 km/h (2 Bft)
18.02.2015 16:20 -1,8 C 1,1 C 78 % 78 % 1035,5 hPa 0,0 l/m 2,7 km/h (1 Bft) N-NO 22 -5,1 C -2,4 C 6,0 km/h (2 Bft)
18.02.2015 16:25 -2,0 C 1,1 C 78 % 78 % 1035,5 hPa 0,0 l/m 2,9 km/h (1 Bft) NO 45 -5,3 C -2,6 C 2,7 km/h (1 Bft)
18.02.2015 16:30 -2,0 C 1,1 C 79 % 79 % 1035,5 hPa 0,0 l/m 3,1 km/h (1 Bft) N-NO 22 -5,1 C -2,8 C 3,4 km/h (1 Bft)
18.02.2015 16:35 -2,1 C 1,0 C 79 % 79 % 1035,7 hPa 0,0 l/m 2,6 km/h (1 Bft) O-NO 67 -5,2 C -2,4 C 0,0 km/h (0 Bft)
18.02.2015 16:40 -2,2 C 1,0 C 79 % 79 % 1035,7 hPa 0,0 l/m 2,9 km/h (1 Bft) N-NO 22 -5,3 C -2,9 C 5,1 km/h (1 Bft)
18.02.2015 16:45 -2,4 C 1,0 C 79 % 79 % 1035,7 hPa 0,0 l/m 3,1 km/h (1 Bft) N-NO 22 -5,5 C -3,1 C 6,8 km/h (2 Bft)
18.02.2015 16:50 -2,5 C 1,0 C 79 % 79 % 1035,7 hPa 0,0 l/m 3,2 km/h (1 Bft) N-NO 22 -5,6 C -3,4 C 4,8 km/h (1 Bft)
18.02.2015 16:55 -2,6 C 1,0 C 79 % 79 % 1035,4 hPa 0,0 l/m 3,4 km/h (1 Bft) N-NO 22 -5,7 C -3,7 C 5,3 km/h (1 Bft)
18.02.2015 17:00 -2,7 C 1,0 C 80 % 80 % 1035,4 hPa 0,0 l/m 4,0 km/h (1 Bft) O-NO 67 -5,7 C -4,4 C 3,9 km/h (1 Bft)
18.02.2015 17:05 -2,8 C 1,0 C 80 % 80 % 1035,4 hPa 0,0 l/m 3,2 km/h (1 Bft) W-SW 247 -5,8 C -3,9 C 0,0 km/h (0 Bft)
18.02.2015 17:10 -2,8 C 1,0 C 81 % 81 % 1035,4 hPa 0,0 l/m 1,8 km/h (1 Bft) N 360 -5,6 C -3,1 C 1,9 km/h (1 Bft)
18.02.2015 17:15 -2,8 C 1,0 C 81 % 81 % 1035,2 hPa 0,0 l/m 0,8 km/h (0 Bft) O-NO 67 -5,6 C -3,1 C 2,9 km/h (1 Bft)
18.02.2015 17:20 -2,8 C 1,0 C 81 % 81 % 1035,2 hPa 0,0 l/m 1,3 km/h (1 Bft) NO 45 -5,6 C -3,2 C 5,5 km/h (1 Bft)
18.02.2015 17:25 -3,0 C 1,0 C 82 % 82 % 1035,2 hPa 0,0 l/m 2,3 km/h (1 Bft) N-NO 22 -5,6 C -3,4 C 2,9 km/h (1 Bft)
18.02.2015 17:30 -2,9 C 1,0 C 82 % 82 % 1035,2 hPa 0,0 l/m 2,9 km/h (1 Bft) NO 45 -5,5 C -4,1 C 3,1 km/h (1 Bft)
18.02.2015 17:35 -3,0 C 1,0 C 82 % 82 % 1035,5 hPa 0,0 l/m 2,9 km/h (1 Bft) NO 45 -5,6 C -4,1 C 4,8 km/h (1 Bft)
18.02.2015 17:40 -3,0 C 1,0 C 83 % 83 % 1035,5 hPa 0,0 l/m 3,7 km/h (1 Bft) N-NO 22 -5,5 C -4,8 C 4,3 km/h (1 Bft)
18.02.2015 17:45 -3,0 C 1,0 C 83 % 83 % 1035,5 hPa 0,0 l/m 3,7 km/h (1 Bft) NO 45 -5,5 C -4,9 C 5,1 km/h (1 Bft)
18.02.2015 17:50 -3,1 C 1,0 C 83 % 83 % 1035,5 hPa 0,0 l/m 4,2 km/h (1 Bft) N-NO 22 -5,6 C -5,2 C 6,6 km/h (2 Bft)
18.02.2015 17:55 -3,1 C 1,0 C 83 % 83 % 1035,3 hPa 0,0 l/m 3,5 km/h (1 Bft) O-NO 67 -5,6 C -4,9 C 1,6 km/h (1 Bft)
18.02.2015 18:00 -3,1 C 1,0 C 84 % 84 % 1035,3 hPa 0,0 l/m 2,6 km/h (1 Bft) N-NO 22 -5,4 C -4,2 C 3,2 km/h (1 Bft)
18.02.2015 18:05 -3,0 C 1,0 C 84 % 84 % 1035,3 hPa 0,0 l/m 1,8 km/h (1 Bft) N-NO 22 -5,3 C -3,7 C 0,0 km/h (0 Bft)
18.02.2015 18:10 -3,1 C 1,0 C 84 % 84 % 1035,3 hPa 0,0 l/m 1,3 km/h (1 Bft) S-SW 202 -5,4 C -3,7 C 1,9 km/h (1 Bft)
18.02.2015 18:15 -3,2 C 1,0 C 84 % 84 % 1035,3 hPa 0,0 l/m 2,1 km/h (1 Bft) NO 45 -5,5 C -3,7 C 3,4 km/h (1 Bft)
18.02.2015 18:20 -3,2 C 1,0 C 84 % 84 % 1035,3 hPa 0,0 l/m 3,7 km/h (1 Bft) N-NO 22 -5,5 C -5,0 C 3,1 km/h (1 Bft)
18.02.2015 18:25 -3,2 C 1,0 C 84 % 84 % 1035,3 hPa 0,0 l/m 4,3 km/h (1 Bft) N-NO 22 -5,5 C -5,5 C 2,3 km/h (1 Bft)
18.02.2015 18:30 -3,3 C 1,0 C 85 % 85 % 1035,3 hPa 0,0 l/m 3,9 km/h (1 Bft) N-NO 22 -5,5 C -5,2 C 5,3 km/h (1 Bft)
18.02.2015 18:35 -3,2 C 1,0 C 85 % 85 % 1035,3 hPa 0,0 l/m 2,9 km/h (1 Bft) NO 45 -5,4 C -4,5 C 1,9 km/h (1 Bft)
18.02.2015 18:40 -3,3 C 1,0 C 85 % 85 % 1035,3 hPa 0,0 l/m 2,3 km/h (1 Bft) NO 45 -5,5 C -3,9 C 4,0 km/h (1 Bft)
18.02.2015 18:45 -3,3 C 1,0 C 85 % 85 % 1035,3 hPa 0,0 l/m 2,3 km/h (1 Bft) N-NW 337 -5,5 C -4,1 C 2,4 km/h (1 Bft)
18.02.2015 18:50 -3,3 C 1,0 C 85 % 85 % 1035,3 hPa 0,0 l/m 2,4 km/h (1 Bft) NO 45 -5,5 C -4,2 C 3,1 km/h (1 Bft)
18.02.2015 18:55 -3,3 C 1,0 C 85 % 85 % 1035,3 hPa 0,0 l/m 2,9 km/h (1 Bft) NO 45 -5,5 C -4,6 C 7,2 km/h (2 Bft)
18.02.2015 19:00 -3,4 C 1,0 C 85 % 85 % 1035,3 hPa 0,0 l/m 2,9 km/h (1 Bft) O-NO 67 -5,5 C -4,6 C 2,4 km/h (1 Bft)
18.02.2015 19:05 -3,3 C 1,0 C 85 % 85 % 1035,3 hPa 0,0 l/m 2,9 km/h (1 Bft) N-NW 337 -5,5 C -4,6 C 5,5 km/h (1 Bft)
18.02.2015 19:10 -3,4 C 1,0 C 86 % 86 % 1035,3 hPa 0,0 l/m 3,1 km/h (1 Bft) O-NO 67 -5,4 C -4,8 C 5,1 km/h (1 Bft)
18.02.2015 19:15 -3,4 C 1,0 C 86 % 86 % 1035,5 hPa 0,0 l/m 2,9 km/h (1 Bft) NO 45 -5,4 C -4,6 C 2,7 km/h (1 Bft)
18.02.2015 19:20 -3,4 C 1,0 C 86 % 86 % 1035,5 hPa 0,0 l/m 2,4 km/h (1 Bft) NW 315 -5,4 C -4,2 C 0,0 km/h (0 Bft)
18.02.2015 19:25 -3,4 C 1,0 C 86 % 86 % 1035,5 hPa 0,0 l/m 2,6 km/h (1 Bft) N-NO 22 -5,4 C -4,4 C 2,9 km/h (1 Bft)
18.02.2015 19:30 -3,4 C 1,0 C 86 % 86 % 1035,5 hPa 0,0 l/m 2,3 km/h (1 Bft) O-NO 67 -5,4 C -4,1 C 3,7 km/h (1 Bft)
18.02.2015 19:35 -3,5 C 1,0 C 86 % 86 % 1035,6 hPa 0,0 l/m 2,3 km/h (1 Bft) N-NW 337 -5,5 C -4,1 C 3,5 km/h (1 Bft)
18.02.2015 19:40 -3,5 C 1,0 C 86 % 86 % 1035,6 hPa 0,0 l/m 2,3 km/h (1 Bft) NO 45 -5,5 C -4,1 C 3,9 km/h (1 Bft)
18.02.2015 19:45 -3,5 C 1,0 C 86 % 86 % 1035,6 hPa 0,0 l/m 2,6 km/h (1 Bft) NO 45 -5,5 C -4,4 C 1,6 km/h (1 Bft)
18.02.2015 19:50 -3,5 C 1,0 C 86 % 86 % 1035,6 hPa 0,0 l/m 2,3 km/h (1 Bft) O-NO 67 -5,5 C -4,1 C 2,7 km/h (1 Bft)
18.02.2015 19:55 -3,6 C 1,0 C 86 % 86 % 1035,6 hPa 0,0 l/m 2,1 km/h (1 Bft) O-NO 67 -5,6 C -3,9 C 2,3 km/h (1 Bft)
18.02.2015 20:00 -3,5 C 1,0 C 86 % 86 % 1035,6 hPa 0,0 l/m 2,1 km/h (1 Bft) NW 315 -5,5 C -4,0 C 2,9 km/h (1 Bft)
18.02.2015 20:05 -3,5 C 1,0 C 86 % 86 % 1035,6 hPa 0,0 l/m 1,4 km/h (1 Bft) N 360 -5,5 C -4,0 C 0,0 km/h (0 Bft)
18.02.2015 20:10 -3,5 C 1,0 C 86 % 86 % 1035,6 hPa 0,0 l/m 0,8 km/h (0 Bft) NO 45 -5,5 C -4,0 C 2,1 km/h (1 Bft)
18.02.2015 20:15 -3,5 C 1,0 C 86 % 86 % 1035,2 hPa 0,0 l/m 1,1 km/h (1 Bft) N-NW 337 -5,5 C -4,0 C 1,6 km/h (1 Bft)
18.02.2015 20:20 -3,5 C 1,0 C 86 % 86 % 1035,2 hPa 0,0 l/m 1,6 km/h (1 Bft) N-NO 22 -5,5 C -4,0 C 0,0 km/h (0 Bft)
18.02.2015 20:25 -3,5 C 1,0 C 86 % 86 % 1035,2 hPa 0,0 l/m 0,6 km/h (0 Bft) NW 315 -5,5 C -4,0 C 0,0 km/h (0 Bft)
18.02.2015 20:30 -3,5 C 1,0 C 86 % 86 % 1035,2 hPa 0,0 l/m 0,2 km/h (0 Bft) NW 315 -5,5 C -4,0 C 0,0 km/h (0 Bft)
18.02.2015 20:35 -3,5 C 1,0 C 86 % 86 % 1035,1 hPa 0,0 l/m 0,0 km/h (0 Bft) W 270 -5,5 C -4,0 C 0,0 km/h (0 Bft)
18.02.2015 20:40 -3,5 C 1,0 C 86 % 86 % 1035,1 hPa 0,0 l/m 0,0 km/h (0 Bft) O 90 -5,5 C -3,9 C 0,0 km/h (0 Bft)
18.02.2015 20:45 -3,4 C 1,0 C 86 % 86 % 1035,1 hPa 0,0 l/m 0,0 km/h (0 Bft) NW 315 -5,4 C -3,9 C 0,0 km/h (0 Bft)
18.02.2015 20:50 -3,4 C 1,0 C 86 % 86 % 1035,1 hPa 0,0 l/m 0,0 km/h (0 Bft) SW 225 -5,4 C -3,9 C 0,0 km/h (0 Bft)
18.02.2015 20:55 -3,5 C 1,0 C 86 % 86 % 1035,3 hPa 0,0 l/m 0,6 km/h (0 Bft) N-NO 22 -5,5 C -3,9 C 3,9 km/h (1 Bft)
18.02.2015 21:00 -3,5 C 1,0 C 86 % 86 % 1035,3 hPa 0,0 l/m 0,8 km/h (0 Bft) N-NO 22 -5,5 C -3,9 C 0,0 km/h (0 Bft)
18.02.2015 21:05 -3,5 C 1,0 C 86 % 86 % 1035,3 hPa 0,0 l/m 0,5 km/h (0 Bft) NW 315 -5,5 C -4,0 C 0,0 km/h (0 Bft)
18.02.2015 21:10 -3,5 C 1,0 C 86 % 86 % 1035,3 hPa 0,0 l/m 0,0 km/h (0 Bft) NW 315 -5,5 C -4,0 C 0,0 km/h (0 Bft)
18.02.2015 21:15 -3,5 C 1,0 C 86 % 86 % 1035,2 hPa 0,0 l/m 0,0 km/h (0 Bft) NW 315 -5,5 C -4,0 C 0,0 km/h (0 Bft)
18.02.2015 21:20 -3,5 C 1,0 C 86 % 86 % 1035,2 hPa 0,0 l/m 0,0 km/h (0 Bft) NW 315 -5,5 C -4,0 C 0,0 km/h (0 Bft)
18.02.2015 21:25 -3,5 C 1,0 C 86 % 86 % 1035,2 hPa 0,0 l/m 0,0 km/h (0 Bft) W-NW 292 -5,5 C -4,0 C 1,6 km/h (1 Bft)
18.02.2015 21:30 -3,5 C 1,0 C 86 % 86 % 1035,2 hPa 0,0 l/m 0,0 km/h (0 Bft) NW 315 -5,5 C -4,0 C 0,0 km/h (0 Bft)
18.02.2015 21:35 -3,5 C 1,0 C 86 % 86 % 1035,4 hPa 0,0 l/m 0,0 km/h (0 Bft) NW 315 -5,5 C -4,0 C 0,0 km/h (0 Bft)
18.02.2015 21:40 -3,5 C 1,0 C 86 % 86 % 1035,4 hPa 0,0 l/m 0,2 km/h (0 Bft) W 270 -5,5 C -4,0 C 1,6 km/h (1 Bft)
18.02.2015 21:45 -3,5 C 1,0 C 86 % 86 % 1035,4 hPa 0,0 l/m 0,3 km/h (0 Bft) NW 315 -5,5 C -4,0 C 1,9 km/h (1 Bft)
18.02.2015 21:50 -3,6 C 1,0 C 86 % 86 % 1035,4 hPa 0,0 l/m 1,1 km/h (1 Bft) W-SW 247 -5,6 C -4,0 C 0,0 km/h (0 Bft)
18.02.2015 21:55 -3,6 C 1,0 C 86 % 86 % 1035,4 hPa 0,0 l/m 1,0 km/h (0 Bft) W 270 -5,6 C -4,1 C 0,0 km/h (0 Bft)
18.02.2015 22:00 -3,6 C 1,0 C 86 % 86 % 1035,4 hPa 0,0 l/m 0,3 km/h (0 Bft) SW 225 -5,6 C -4,1 C 0,0 km/h (0 Bft)
18.02.2015 22:05 -3,6 C 1,0 C 86 % 86 % 1035,4 hPa 0,0 l/m 0,2 km/h (0 Bft) W 270 -5,6 C -4,1 C 0,0 km/h (0 Bft)
18.02.2015 22:10 -3,6 C 1,0 C 86 % 86 % 1035,4 hPa 0,0 l/m 0,0 km/h (0 Bft) S 180 -5,6 C -4,1 C 0,0 km/h (0 Bft)
18.02.2015 22:15 -3,6 C 1,0 C 86 % 86 % 1035,4 hPa 0,0 l/m 0,2 km/h (0 Bft) SW 225 -5,6 C -4,2 C 0,0 km/h (0 Bft)
18.02.2015 22:20 -3,7 C 1,0 C 86 % 86 % 1035,4 hPa 0,0 l/m 0,3 km/h (0 Bft) W 270 -5,7 C -4,2 C 1,6 km/h (1 Bft)
18.02.2015 22:25 -3,7 C 1,0 C 86 % 86 % 1035,4 hPa 0,0 l/m 0,8 km/h (0 Bft) SW 225 -5,7 C -4,2 C 0,0 km/h (0 Bft)
18.02.2015 22:30 -3,8 C 1,0 C 86 % 86 % 1035,4 hPa 0,0 l/m 2,1 km/h (1 Bft) S-SW 202 -5,8 C -4,2 C 3,7 km/h (1 Bft)
18.02.2015 22:35 -3,8 C 1,0 C 86 % 86 % 1035,4 hPa 0,0 l/m 2,6 km/h (1 Bft) S 180 -5,8 C -4,8 C 3,5 km/h (1 Bft)
18.02.2015 22:40 -3,8 C 1,0 C 86 % 86 % 1035,4 hPa 0,0 l/m 2,1 km/h (1 Bft) SO 135 -5,8 C -4,3 C 0,0 km/h (0 Bft)
18.02.2015 22:45 -3,9 C 1,0 C 86 % 86 % 1035,4 hPa 0,0 l/m 1,1 km/h (1 Bft) SO 135 -5,9 C -4,3 C 0,0 km/h (0 Bft)
18.02.2015 22:50 -3,9 C 1,0 C 86 % 86 % 1035,4 hPa 0,0 l/m 0,2 km/h (0 Bft) N-NO 22 -5,9 C -4,3 C 0,0 km/h (0 Bft)
18.02.2015 22:55 -3,9 C 1,0 C 86 % 86 % 1035,3 hPa 0,0 l/m 0,3 km/h (0 Bft) W 270 -5,9 C -4,3 C 2,4 km/h (1 Bft)
18.02.2015 23:00 -3,9 C 1,0 C 86 % 86 % 1035,3 hPa 0,0 l/m 0,8 km/h (0 Bft) NW 315 -5,9 C -4,3 C 1,6 km/h (1 Bft)
18.02.2015 23:05 -3,9 C 1,0 C 86 % 86 % 1035,3 hPa 0,0 l/m 1,6 km/h (1 Bft) W 270 -5,9 C -4,3 C 3,9 km/h (1 Bft)
18.02.2015 23:10 -4,0 C 1,0 C 86 % 86 % 1035,3 hPa 0,0 l/m 2,7 km/h (1 Bft) W-SW 247 -6,0 C -5,1 C 3,5 km/h (1 Bft)
18.02.2015 23:15 -4,0 C 1,0 C 86 % 86 % 1035,6 hPa 0,0 l/m 3,2 km/h (1 Bft) NW 315 -6,0 C -5,4 C 3,7 km/h (1 Bft)
18.02.2015 23:20 -4,0 C 1,0 C 86 % 86 % 1035,6 hPa 0,0 l/m 2,3 km/h (1 Bft) W-SW 247 -6,0 C -4,7 C 1,8 km/h (1 Bft)
18.02.2015 23:25 -4,0 C 1,0 C 86 % 86 % 1035,6 hPa 0,0 l/m 1,8 km/h (1 Bft) W 270 -6,0 C -4,5 C 3,9 km/h (1 Bft)
18.02.2015 23:30 -4,1 C 1,0 C 86 % 86 % 1035,6 hPa 0,0 l/m 1,1 km/h (1 Bft) S 180 -6,1 C -4,5 C 1,8 km/h (1 Bft)
18.02.2015 23:35 -4,1 C 1,0 C 86 % 86 % 1035,8 hPa 0,0 l/m 1,3 km/h (1 Bft) W-SW 247 -6,1 C -4,6 C 1,9 km/h (1 Bft)
18.02.2015 23:40 -4,1 C 1,0 C 86 % 86 % 1035,8 hPa 0,0 l/m 1,3 km/h (1 Bft) SW 225 -6,1 C -4,6 C 0,0 km/h (0 Bft)
18.02.2015 23:45 -4,1 C 1,0 C 86 % 86 % 1035,8 hPa 0,0 l/m 0,8 km/h (0 Bft) W 270 -6,1 C -4,6 C 2,4 km/h (1 Bft)
18.02.2015 23:50 -4,2 C 1,0 C 86 % 86 % 1035,8 hPa 0,0 l/m 1,0 km/h (0 Bft) W-SW 247 -6,2 C -4,6 C 2,4 km/h (1 Bft)
18.02.2015 23:55 -4,2 C 1,0 C 86 % 86 % 1035,9 hPa 0,0 l/m 1,1 km/h (1 Bft) W 270 -6,2 C -4,6 C 2,6 km/h (1 Bft)
_ Min-Zeit 23:55 23:55 15:25 15:25 20:50 - 22:10 - - 13:20 07:45 23:40
Minimum _ -4,2 C 1,0 C 74 % 74 % 1035,1 hPa - 0,0 km/h (0 Bft) - - -6,7 C -5,8 C 0,0 km/h (0 Bft)
_ Max-Zeit 15:15 16:30 09:50 09:50 12:10 23:55 12:35 - - 15:15 15:05 14:00
Maximum _ -0,5 C 1,1 C 87 % 87 % 1038,2 hPa 0,0 l/m 5,6 km/h
O-NO (1 Bft)
- - -4,5 C -0,2 C 12,9 km/h
N-NO (3 Bft)
Durchschnitt _ -3,2 C 1,0 C 84 % 84 % 1036,7 hPa #0,0 l/m 2,4 km/h (1 Bft) NO - -5,6 C -3,9 C 3,1 km/h (1 Bft)